Probability
0 0 0 0 0 0 0 0 0 0 0 0 0 0 0 0 3 6 10 16 32 42 39 55 58 58 55 52 48 48 42 42 39 35 29 29 29 26 23 23 23 23 19 19 19 19 16 16 16
0 0 0 0 0 0 0 0 0 0 0 0 0 0 0 0 3 3 6 23 39 39 32 48 55 55 55 52 48 42 42 42 32 35 32 32 32 29 26 23 23 19 19 16 16 13 13 10 13
0 0 0 0 0 0 0 0 0 0 0 0 0 0 0 0 3 3 10 29 39 39 39 45 55 52 52 45 42 42 39 35 35 39 35 35 29 29 29 26 23 16 16 10 10 10 6 6 6
0 0 0 0 0 0 0 0 0 0 0 0 0 0 0 3 3 6 10 29 35 39 39 45 52 52 48 48 48 48 39 35 35 32 32 29 29 29 19 13 13 10 13 13 6 6 6 6 6
0 0 0 0 0 0 0 0 0 0 0 0 0 0 3 3 3 6 16 29 32 32 35 42 48 48 48 45 45 39 39 39 32 35 29 29 26 26 26 26 16 13 10 6 6 6 6 6 6
0 0 0 0 0 0 0 0 0 0 0 0 0 0 3 3 3 10 13 29 32 35 35 42 48 45 45 45 39 39 39 39 35 29 29 26 26 26 26 23 19 19 6 6 6 6 6 6 3
0 0 0 0 0 0 0 0 0 0 0 0 0 0 3 3 3 10 16 32 32 35 35 39 42 42 39 39 39 35 35 35 32 29 26 29 26 23 19 19 19 16 10 10 6 6 6 0 0
0 0 0 0 0 0 0 0 0 0 0 0 0 0 0 3 3 13 32 29 32 29 29 26 32 29 29 26 26 26 26 26 29 19 16 16 16 16 16 10 10 13 13 3 3 3 0 3 0
0 0 0 0 0 0 0 0 0 0 0 0 0 0 3 3 6 13 29 29 29 26 29 26 26 26 26 23 19 16 16 16 13 10 6 3 6 3 3 3 3 3 6 3 0 0 0 0 0
0 0 0 0 0 0 0 0 0 0 0 0 0 3 3 6 6 16 26 26 26 26 23 26 23 23 16 13 6 6 10 6 6 6 0 3 3 0 0 0 0 3 0 0 0 0 0 0 0
0 0 0 0 0 0 0 0 0 0 0 0 0 3 3 6 6 19 26 19 23 16 19 23 23 16 13 6 6 6 6 6 3 6 6 0 0 0 0 0 0 0 0 0 0 0 0 0 0
0 0 0 0 0 0 0 0 0 0 0 0 0 0 3 6 6 6 13 13 19 19 16 13 16 13 10 6 6 3 6 6 3 3 3 3 0 0 0 0 0 0 0 0 0 0 0 0 0
0 0 0 0 0 0 0 0 0 0 0 0 0 0 3 6 6 10 10 13 13 13 13 13 16 13 10 10 10 6 3 3 3 3 3 3 3 0 0 0 0 0 0 0 0 0 0 0 0
0 0 0 0 0 0 0 0 0 0 0 0 0 0 0 3 6 10 10 13 13 13 10 10 13 13 10 10 10 6 6 10 10 3 3 3 3 3 0 0 0 0 0 0 0 0 0 0 0
0 0 0 0 0 0 0 0 0 0 0 0 0 0 0 3 6 6 6 10 13 13 10 10 10 13 10 10 6 6 6 10 3 3 3 3 3 3 0 0 0 0 0 0 0 0 0 0 0
0 0 0 0 0 0 0 0 0 0 0 0 0 0 0 0 6 6 6 10 6 6 10 6 10 10 10 10 3 3 3 6 6 6 3 3 3 0 0 0 0 0 0 0 0 0 0 0 0
0 0 0 0 0 0 0 0 0 0 0 0 0 0 0 0 3 6 6 6 6 6 6 6 3 6 6 6 3 3 3 6 6 6 3 3 3 0 0 0 0 0 0 0 0 0 0 0 0
0 0 0 0 0 0 0 0 0 0 0 0 0 0 0 0 0 3 3 3 6 6 6 6 6 6 3 3 3 3 3 3 6 6 3 3 3 3 0 0 0 0 0 0 0 0 0 0 0
0 0 0 0 0 0 0 0 0 0 0 0 0 0 0 0 0 3 3 3 3 3 6 6 6 6 3 3 0 3 3 3 3 6 3 3 3 0 0 0 0 0 0 0 0 0 0 0 0
0 0 0 0 0 0 0 0 0 0 0 0 0 0 0 0 0 0 3 3 3 3 3 6 6 6 3 3 3 0 0 0 0 3 3 3 3 0 0 0 0 0 0 0 0 0 0 0 0
0 0 0 0 0 0 0 0 0 0 0 0 0 0 0 0 0 0 3 3 3 3 3 3 3 6 6 3 3 3 0 3 0 0 0 3 0 0 0 0 0 0 0 0 0 0 0 0 0
0 0 0 0 0 0 0 0 0 0 0 0 0 0 0 0 0 0 0 3 3 3 3 3 3 3 3 0 0 0 0 0 0 0 0 0 0 0 0 0 0 0 0 0 0 0 0 0 0
0 0 0 0 0 0 0 0 0 0 0 0 0 0 0 0 0 0 0 3 3 3 3 3 3 3 3 0 0 0 0 0 0 0 0 0 0 0 0 0 0 0 0 0 0 0 0 0 0
0 0 0 0 0 0 0 0 0 0 0 0 0 0 0 0 0 0 0 0 3 3 3 3 3 3 3 0 0 0 0 0 0 0 0 0 0 0 0 0 0 0 0 0 0 0 0 0 0
0 0 0 0 0 0 0 0 0 0 0 0 0 0 0 0 0 0 0 0 3 3 3 3 3 3 3 3 0 0 0 0 0 0 0 0 0 0 0 0 0 0 0 0 0 0 0 0 0
0 0 0 0 0 0 0 0 0 0 0 0 0 0 0 0 0 0 0 0 3 3 3 3 3 3 3 3 0 0 0 0 0 0 0 0 0 0 0 0 0 0 0 0 0 0 0 0 0
0 0 0 0 0 0 0 0 0 0 0 0 0 0 0 0 0 0 0 3 3 3 3 3 3 3 3 3 0 0 0 0 0 0 0 0 0 0 0 0 0 0 0 0 0 0 0 0 0
0 0 0 0 0 0 0 0 0 0 0 0 0 0 0 0 0 0 0 0 3 3 3 3 3 3 3 3 0 0 0 0 0 0 0 0 0 0 0 0 0 0 0 0 0 0 0 0 0
0 0 0 0 0 0 0 0 0 0 0 0 0 0 0 0 0 0 0 0 0 3 3 3 3 3 3 3 0 0 0 0 0 0 0 0 0 0 0 0 0 0 0 0 0 0 0 0 0
0 0 0 0 0 0 0 0 0 0 0 0 0 0 0 0 0 0 0 0 0 0 3 3 3 3 3 0 0 0 0 0 0 0 0 0 0 0 0 0 0 0 0 0 0 0 0 0 0
Height
5802 5804 5807 5809 5812 5814 5819 5825 5828 5830 5833 5835 5837 5840 5842 5844 5846 5849 5851 5852 5853 5855 5856 5858 5859 5861 5862 5863 5864 5865 5866 5867 5868 5868 5869 5869 5870 5870 5870 5870 5870 5870 5870 5870 5870 5870 5869 5869 5869
5794 5797 5800 5802 5805 5808 5815 5820 5823 5825 5828 5831 5833 5836 5838 5840 5841 5844 5846 5848 5850 5852 5854 5855 5857 5858 5860 5861 5862 5863 5864 5865 5866 5866 5867 5867 5868 5868 5868 5868 5868 5868 5868 5868 5868 5867 5867 5867 5866
5786 5788 5792 5795 5798 5804 5811 5814 5817 5819 5823 5826 5829 5831 5834 5836 5838 5840 5842 5845 5847 5849 5851 5852 5854 5855 5857 5858 5859 5860 5861 5862 5863 5864 5864 5865 5865 5865 5866 5866 5866 5866 5866 5866 5865 5865 5865 5864 5864
5777 5780 5784 5788 5792 5799 5804 5808 5811 5813 5817 5820 5823 5826 5829 5832 5834 5837 5838 5841 5843 5845 5847 5849 5851 5852 5853 5855 5856 5857 5858 5859 5860 5861 5862 5862 5862 5863 5863 5863 5863 5863 5863 5863 5863 5863 5862 5862 5861
5768 5771 5775 5780 5787 5793 5797 5800 5804 5806 5810 5814 5818 5821 5824 5827 5829 5831 5834 5836 5839 5841 5843 5845 5847 5849 5850 5851 5853 5854 5855 5856 5857 5858 5859 5859 5859 5860 5860 5860 5860 5860 5860 5860 5860 5860 5860 5859 5859
5759 5763 5768 5773 5780 5786 5790 5793 5797 5800 5804 5807 5811 5815 5817 5821 5824 5826 5828 5831 5834 5837 5839 5841 5843 5845 5846 5848 5849 5851 5852 5853 5854 5855 5855 5856 5856 5857 5857 5857 5857 5857 5857 5857 5857 5857 5856 5856 5855
5750 5754 5759 5766 5772 5778 5783 5785 5789 5793 5797 5801 5804 5808 5811 5816 5818 5821 5823 5826 5829 5832 5834 5837 5839 5841 5842 5844 5845 5847 5848 5849 5850 5851 5852 5852 5853 5853 5854 5854 5854 5854 5854 5854 5854 5853 5853 5852 5852
5740 5745 5750 5757 5763 5770 5774 5777 5781 5785 5790 5793 5797 5801 5805 5809 5813 5815 5818 5821 5824 5827 5829 5832 5834 5836 5838 5840 5841 5843 5844 5845 5846 5847 5848 5849 5849 5850 5850 5850 5850 5850 5850 5850 5850 5850 5849 5849 5848
5729 5735 5742 5750 5755 5761 5764 5768 5772 5777 5782 5785 5789 5794 5798 5802 5806 5809 5812 5815 5818 5821 5824 5827 5829 5831 5833 5835 5837 5838 5840 5841 5842 5843 5844 5845 5846 5846 5846 5847 5847 5847 5847 5846 5846 5846 5845 5845 5844
5718 5725 5735 5742 5745 5750 5753 5758 5764 5769 5774 5778 5782 5786 5790 5795 5800 5803 5806 5809 5813 5816 5819 5821 5824 5826 5828 5830 5832 5834 5835 5836 5838 5839 5840 5841 5841 5842 5842 5843 5843 5843 5843 5842 5842 5842 5841 5841 5840
5710 5718 5726 5730 5734 5738 5744 5750 5755 5761 5766 5770 5774 5779 5783 5788 5792 5796 5799 5803 5806 5809 5812 5815 5818 5821 5823 5825 5827 5828 5830 5832 5833 5834 5835 5836 5837 5838 5838 5839 5839 5839 5838 5838 5838 5837 5837 5836 5835
5701 5708 5714 5719 5724 5729 5734 5741 5747 5752 5758 5762 5766 5771 5775 5780 5784 5788 5792 5796 5799 5803 5806 5809 5812 5815 5817 5819 5821 5823 5825 5827 5828 5829 5830 5832 5832 5833 5834 5834 5834 5834 5834 5833 5833 5832 5832 5831 5830
5690 5698 5703 5709 5714 5719 5725 5732 5737 5744 5749 5753 5758 5763 5767 5772 5776 5780 5784 5788 5792 5796 5799 5803 5806 5808 5811 5813 5815 5817 5819 5821 5823 5824 5825 5826 5827 5828 5829 5829 5829 5829 5829 5828 5828 5827 5826 5826 5824
5681 5686 5692 5698 5703 5710 5716 5722 5728 5736 5739 5745 5750 5754 5759 5764 5768 5773 5777 5781 5785 5789 5792 5796 5799 5802 5804 5807 5809 5811 5814 5815 5817 5818 5820 5821 5822 5823 5823 5824 5824 5824 5823 5823 5823 5822 5821 5820 5819
5669 5675 5681 5687 5693 5700 5705 5713 5720 5726 5730 5735 5741 5746 5750 5755 5760 5765 5769 5773 5777 5781 5785 5788 5792 5795 5798 5800 5803 5805 5807 5809 5811 5812 5814 5815 5816 5817 5818 5818 5818 5818 5818 5818 5817 5816 5815 5814 5813
5658 5664 5671 5679 5684 5690 5697 5704 5712 5715 5720 5726 5731 5737 5742 5747 5752 5756 5761 5765 5769 5773 5777 5781 5784 5788 5791 5794 5796 5798 5801 5803 5805 5806 5808 5809 5810 5811 5812 5812 5812 5812 5812 5812 5811 5810 5809 5808 5806
5647 5654 5662 5670 5675 5680 5686 5695 5702 5705 5711 5717 5722 5727 5732 5738 5743 5748 5752 5757 5762 5766 5770 5773 5777 5780 5784 5787 5789 5792 5794 5796 5798 5800 5801 5803 5804 5805 5805 5806 5806 5806 5806 5805 5805 5804 5803 5801 5800
5640 5647 5653 5659 5666 5670 5676 5684 5691 5695 5701 5707 5712 5718 5723 5728 5734 5739 5744 5748 5753 5757 5762 5765 5769 5773 5776 5779 5782 5785 5787 5789 5791 5792 5794 5796 5797 5798 5799 5799 5799 5799 5799 5798 5798 5797 5796 5794 5793
5632 5638 5643 5651 5655 5660 5666 5673 5680 5686 5691 5697 5702 5708 5713 5719 5725 5730 5735 5740 5744 5749 5754 5757 5761 5765 5768 5771 5775 5777 5780 5782 5784 5785 5787 5789 5790 5791 5792 5792 5792 5792 5792 5791 5791 5790 5788 5787 5785
5622 5628 5634 5640 5645 5650 5656 5662 5669 5675 5681 5687 5692 5698 5704 5710 5715 5721 5726 5731 5736 5741 5745 5749 5753 5757 5760 5764 5767 5769 5772 5774 5777 5778 5780 5781 5783 5784 5785 5785 5785 5785 5785 5784 5783 5782 5781 5779 5777
5615 5620 5626 5631 5637 5641 5646 5652 5659 5666 5671 5676 5682 5688 5694 5700 5706 5712 5717 5722 5727 5732 5736 5740 5744 5748 5752 5755 5758 5761 5764 5767 5769 5771 5772 5774 5775 5776 5777 5777 5777 5777 5777 5776 5775 5774 5773 5771 5769
5608 5613 5618 5623 5627 5632 5637 5641 5650 5655 5661 5667 5673 5679 5685 5691 5696 5702 5707 5713 5718 5722 5727 5731 5735 5739 5743 5747 5750 5753 5756 5759 5761 5763 5765 5766 5768 5768 5769 5769 5770 5770 5769 5768 5768 5766 5765 5763 5761
5601 5606 5611 5615 5619 5623 5628 5632 5640 5644 5650 5657 5663 5670 5676 5681 5687 5692 5697 5703 5708 5713 5717 5722 5726 5730 5734 5738 5741 5745 5748 5751 5753 5755 5757 5758 5760 5761 5761 5762 5762 5761 5761 5760 5759 5758 5757 5755 5752
5594 5599 5603 5606 5610 5614 5619 5623 5629 5634 5641 5648 5654 5660 5666 5671 5676 5682 5687 5693 5698 5703 5708 5712 5717 5721 5725 5729 5732 5736 5739 5742 5744 5746 5748 5750 5751 5752 5753 5753 5753 5753 5753 5752 5751 5750 5748 5746 5744
5587 5591 5595 5598 5600 5606 5612 5614 5620 5627 5632 5638 5644 5650 5655 5661 5666 5672 5677 5682 5688 5693 5697 5702 5707 5711 5715 5719 5723 5726 5729 5733 5736 5738 5740 5742 5743 5744 5745 5745 5745 5745 5744 5744 5742 5741 5739 5737 5735
5580 5584 5589 5592 5595 5600 5604 5607 5613 5619 5623 5629 5634 5640 5645 5650 5656 5661 5667 5672 5677 5682 5687 5692 5697 5701 5705 5709 5713 5717 5720 5724 5726 5729 5731 5733 5734 5735 5736 5736 5736 5736 5736 5735 5734 5732 5730 5728 5726
5574 5578 5583 5586 5589 5592 5596 5601 5606 5610 5615 5619 5625 5630 5635 5640 5646 5651 5656 5661 5666 5671 5676 5681 5686 5691 5696 5700 5703 5707 5711 5714 5717 5720 5722 5724 5725 5727 5727 5728 5728 5727 5727 5726 5725 5724 5722 5720 5717
5570 5573 5577 5579 5582 5585 5590 5594 5599 5602 5607 5611 5615 5620 5625 5630 5635 5640 5645 5651 5656 5661 5666 5671 5676 5681 5685 5690 5694 5697 5701 5704 5707 5710 5712 5714 5716 5717 5718 5718 5719 5719 5718 5717 5716 5715 5713 5711 5708
5564 5567 5570 5573 5576 5580 5583 5589 5591 5594 5599 5603 5607 5610 5615 5620 5625 5630 5635 5640 5645 5650 5655 5660 5665 5670 5675 5679 5683 5687 5691 5695 5698 5701 5703 5705 5707 5708 5709 5709 5709 5709 5709 5708 5707 5705 5704 5702 5699
5559 5561 5565 5568 5571 5574 5577 5584 5583 5586 5590 5594 5598 5601 5606 5610 5615 5619 5625 5630 5635 5640 5645 5650 5655 5660 5665 5669 5673 5678 5681 5685 5688 5691 5693 5695 5697 5698 5699 5700 5700 5700 5700 5699 5697 5696 5695 5693 5690
Wind_Speed
39 38 38 38 39 39 35 31 29 28 27 27 26 26 25 25 24 23 20 19 19 18 18 17 16 16 15 15 14 14 13 13 13 13 12 12 12 12 12 13 13 12 12 12 12 13 13 13 13
41 41 41 41 42 40 36 33 32 31 30 29 28 27 27 27 26 24 22 21 20 20 19 18 18 17 17 16 16 15 15 15 14 14 14 14 14 14 14 14 14 14 14 14 14 14 14 15 15
42 43 43 44 43 41 36 35 34 33 32 31 30 29 29 28 27 25 24 23 22 22 21 20 19 19 18 18 17 17 16 16 16 15 15 15 15 15 15 15 15 15 15 15 15 15 15 16 16
44 44 45 46 44 40 38 37 36 35 34 33 32 32 31 30 28 27 27 25 24 23 23 22 21 21 20 19 19 18 17 17 17 17 17 17 17 17 17 16 16 16 16 16 16 16 16 17 17
47 47 47 47 44 41 39 39 37 37 36 35 34 33 32 31 30 29 29 28 26 25 25 24 23 23 22 21 20 19 19 19 19 18 18 18 18 18 17 17 17 17 17 17 17 18 18 18 19
49 49 49 47 44 42 40 40 39 39 38 37 36 35 35 33 32 31 31 30 28 27 26 26 25 24 23 22 21 21 20 20 20 20 20 20 19 19 18 18 18 18 18 18 18 19 19 20 20
50 50 50 47 45 43 42 42 41 41 40 38 38 38 37 35 34 33 33 32 30 29 28 27 26 26 25 23 23 22 22 21 21 21 21 20 20 19 19 19 19 19 19 19 19 20 20 20 21
51 51 51 49 47 44 43 43 43 42 41 40 40 40 38 36 35 35 35 34 32 31 30 29 28 27 26 25 24 24 23 23 22 22 22 21 21 21 21 21 20 20 20 20 20 20 20 21 21
52 53 50 48 47 46 46 45 45 44 43 42 42 41 39 39 37 36 36 35 33 32 31 31 30 29 28 27 26 25 25 24 23 23 22 22 22 22 22 22 22 21 21 21 21 21 22 22 23
53 53 50 48 48 48 48 47 46 45 44 43 43 42 41 40 38 37 37 36 35 34 33 32 31 31 29 28 27 27 26 25 24 24 24 23 23 23 23 23 23 22 22 22 23 23 23 24 24
52 51 49 49 50 50 49 48 47 46 45 45 44 43 43 41 40 39 38 37 36 36 35 34 33 32 31 30 29 28 27 26 26 25 25 25 24 24 24 24 24 24 24 24 24 25 25 25 26
52 50 50 50 51 51 50 49 48 47 46 46 45 45 44 43 42 42 40 39 38 37 37 36 35 34 33 32 31 30 29 28 28 27 27 26 26 26 26 25 25 25 25 26 26 27 27 27 27
52 51 51 51 51 50 50 50 49 48 47 47 47 46 46 45 43 43 42 41 40 39 38 37 36 35 34 33 32 31 30 30 29 29 28 28 27 27 27 26 26 26 26 27 28 28 28 28 28
51 52 52 52 52 52 51 51 50 48 48 48 48 48 47 46 45 43 43 42 42 41 40 39 38 37 36 34 33 32 32 31 30 30 30 29 29 28 28 27 27 27 28 28 28 29 29 30 30
51 52 52 52 53 53 53 52 50 48 49 49 49 49 48 47 46 45 44 43 43 42 41 40 39 38 37 36 35 34 33 33 32 31 31 30 30 29 29 28 28 28 29 30 30 30 30 31 31
51 52 52 51 52 53 54 52 50 50 49 49 49 49 49 48 47 46 45 44 44 43 42 42 40 39 38 37 36 35 35 34 33 32 32 31 30 30 30 29 29 30 30 31 31 31 32 32 33
51 52 51 50 51 52 53 52 50 50 50 50 50 49 49 48 47 47 46 45 45 44 43 42 41 41 40 38 37 36 36 35 34 34 33 32 31 31 31 30 30 31 31 32 32 32 33 33 34
49 50 50 49 50 51 51 52 51 51 51 50 50 50 50 49 48 47 46 46 45 45 44 43 42 42 41 40 39 38 37 36 35 34 34 33 32 32 32 31 32 32 32 33 33 33 34 34 34
46 48 49 49 49 50 50 50 51 51 51 51 51 51 51 50 49 48 47 47 46 45 44 44 43 42 42 41 40 38 38 37 36 36 35 34 33 33 33 33 33 34 33 34 34 34 35 35 35
44 45 47 48 48 49 49 49 50 50 51 50 51 51 51 50 49 48 48 47 46 46 45 44 43 42 42 41 41 40 39 38 37 36 36 35 35 34 34 34 35 34 35 35 35 35 36 36 36
44 44 44 46 47 48 48 49 49 49 50 50 50 50 51 51 50 49 48 48 47 47 46 45 44 43 42 42 41 41 40 39 38 37 37 36 36 36 35 35 35 35 35 35 35 36 36 36 37
40 42 43 43 45 46 48 50 48 49 50 50 50 50 50 50 50 50 50 49 49 48 47 46 45 44 43 42 41 41 40 40 40 39 38 37 37 36 35 35 35 36 35 36 36 36 37 37 38
37 38 40 41 42 45 47 49 49 49 49 50 50 49 49 49 49 49 49 50 49 49 48 47 46 45 44 43 42 41 41 40 40 39 39 38 37 37 36 36 36 36 36 36 36 37 38 39 39
35 36 36 38 39 43 44 46 48 48 48 48 48 49 49 49 49 49 49 50 49 49 49 49 48 46 45 44 43 42 41 40 40 39 39 39 38 37 37 36 37 37 37 37 37 39 39 39 40
33 34 34 35 37 40 40 43 46 46 46 46 47 48 48 48 48 48 49 49 49 49 49 49 48 47 46 45 44 43 42 41 40 40 39 39 38 38 37 37 37 37 37 38 38 39 39 40 40
33 33 33 34 36 37 37 39 41 43 44 44 45 46 47 48 48 48 48 49 49 50 50 49 48 47 46 45 44 44 43 42 41 40 40 39 39 38 38 38 38 37 37 38 39 39 40 40 41
31 32 31 32 33 34 35 36 39 39 41 42 44 45 46 47 48 48 48 48 49 49 49 48 48 47 47 46 45 45 44 43 42 41 41 40 39 38 38 39 39 38 38 39 39 40 40 41 41
28 29 29 30 32 34 35 35 36 37 39 40 41 43 44 46 47 47 48 48 48 48 48 48 48 48 47 47 46 45 45 44 43 41 41 40 40 40 39 39 39 39 40 40 40 40 40 40 41
26 29 29 29 30 31 34 35 35 36 36 36 37 39 41 43 45 45 46 47 47 47 48 48 49 48 47 46 46 45 44 43 42 42 41 41 40 40 40 40 40 40 40 40 40 40 40 40 40
24 27 28 28 28 29 31 32 34 35 34 34 34 36 38 40 42 43 44 45 46 46 47 47 47 47 47 46 45 45 45 44 43 42 41 41 41 41 40 40 40 40 40 40 40 40 40 40 40
Wind_Direction
236 235 235 234 235 236 236 235 235 235 235 235 235 235 236 238 239 241 240 239 239 237 237 238 239 240 243 244 244 245 248 252 255 258 262 265 269 271 274 276 279 282 283 284 285 287 290 291 292
235 235 235 235 235 236 235 236 236 236 236 236 237 236 236 238 239 240 239 238 238 238 239 241 241 242 244 246 247 247 249 252 256 260 263 266 270 272 274 275 278 280 282 282 283 286 288 289 291
235 234 235 235 236 236 236 237 237 237 236 236 237 237 237 237 239 239 239 238 237 238 239 241 243 243 244 247 249 250 251 254 258 261 264 267 270 272 274 275 276 278 279 280 282 284 286 288 290
235 235 235 236 236 235 236 237 237 237 236 236 236 237 237 238 239 239 239 238 238 239 239 241 243 245 246 248 250 251 253 256 259 262 265 267 270 272 274 274 275 276 277 280 282 284 286 288 289
234 235 235 236 236 235 235 237 237 237 237 236 236 237 237 237 237 237 239 238 238 239 240 242 243 245 247 249 250 252 255 257 260 262 264 267 269 271 273 275 276 277 278 280 282 283 285 287 289
235 235 236 236 235 234 235 236 236 238 238 237 236 237 237 236 236 236 237 238 238 239 241 242 243 244 247 249 251 253 256 258 260 262 264 266 268 270 272 274 276 277 279 281 282 283 285 287 288
234 235 236 236 235 234 234 236 236 237 238 238 237 237 237 236 236 236 237 238 238 238 240 241 243 244 246 249 251 254 256 258 260 262 264 266 267 269 271 273 276 278 279 281 282 284 286 287 288
234 235 235 235 235 234 234 235 235 236 237 237 237 237 237 236 235 236 237 237 237 238 239 240 242 243 245 248 251 253 255 257 259 261 263 265 267 269 271 273 275 277 279 281 283 284 286 288 288
234 233 234 235 236 235 234 234 234 235 236 236 237 237 237 236 235 236 236 237 237 238 238 239 241 243 245 247 250 253 254 256 258 260 262 265 267 269 270 273 274 276 278 280 282 284 286 287 288
234 234 233 233 234 234 234 233 233 233 234 235 236 236 236 237 236 236 236 237 237 238 239 240 242 244 246 248 250 252 254 255 257 259 261 263 266 268 270 273 275 277 278 280 282 283 286 287 288
235 235 233 233 233 234 234 233 233 233 234 234 236 236 237 237 236 236 236 236 237 238 239 240 242 244 246 248 250 252 253 255 256 258 260 262 265 267 270 272 274 276 278 281 283 284 285 287 288
234 234 234 233 233 233 234 233 233 233 234 234 235 235 236 236 235 235 236 236 236 237 238 240 242 244 245 247 249 251 252 254 256 258 259 262 264 267 269 271 273 276 279 281 283 284 285 287 288
233 233 234 234 233 233 234 233 233 233 234 235 235 235 236 236 236 235 236 236 236 238 238 240 241 243 245 247 250 251 253 255 257 258 259 261 264 266 268 270 272 276 278 281 283 284 286 287 288
233 232 233 233 233 233 233 233 234 233 234 235 235 235 235 236 236 236 236 236 237 238 239 239 241 242 245 247 249 252 253 255 256 258 260 261 263 266 267 270 272 275 278 280 284 285 286 287 288
232 233 233 233 233 233 234 233 233 233 234 234 234 235 235 235 236 236 236 236 237 238 239 239 241 243 245 247 249 252 253 254 255 257 259 261 263 265 267 269 273 275 278 280 283 285 287 288 289
232 233 233 233 234 234 234 234 232 234 234 234 234 235 235 235 236 236 236 236 237 238 239 240 241 243 244 246 249 251 252 254 255 257 259 261 262 264 267 269 272 275 278 280 283 285 287 289 289
231 233 233 233 234 235 236 234 233 234 234 234 234 234 235 235 235 236 236 237 237 238 239 241 242 243 244 246 248 250 252 254 255 257 259 260 263 264 266 269 272 275 278 280 283 285 287 289 290
231 233 234 235 234 236 237 236 234 234 234 234 234 234 235 235 234 235 236 237 237 238 239 241 242 243 245 246 247 249 252 254 255 257 258 261 263 265 268 270 272 275 278 281 282 285 288 289 290
233 234 235 236 236 237 238 237 235 235 235 234 233 234 234 235 235 235 235 236 237 238 239 241 242 243 245 246 248 249 251 253 254 256 258 260 263 265 268 270 272 274 278 280 282 285 288 289 290
232 234 235 236 236 237 238 237 236 235 235 235 234 234 234 235 235 235 236 236 237 239 240 241 242 244 245 247 248 249 250 252 254 256 257 260 262 265 268 270 273 275 277 280 282 284 286 289 290
232 234 236 237 237 237 237 237 236 235 235 235 235 235 235 235 235 236 236 236 237 238 240 241 242 244 245 247 248 249 250 252 254 255 257 260 262 265 267 270 273 275 277 279 282 284 286 288 289
232 233 237 238 239 238 238 239 235 236 236 236 236 236 236 236 237 237 237 237 238 239 240 241 242 244 245 247 248 249 250 251 253 255 258 260 263 266 267 269 272 275 277 280 282 283 286 288 289
233 234 237 237 238 239 239 240 237 237 236 236 236 237 237 237 237 237 237 237 238 239 240 242 243 244 245 247 248 249 250 251 253 255 258 260 263 265 267 269 272 274 277 279 281 284 285 287 289
234 235 237 237 238 240 240 242 240 239 237 236 237 237 237 237 237 237 237 238 238 239 240 242 243 244 245 246 247 248 249 251 252 255 257 260 262 264 266 269 271 274 276 279 281 284 286 287 288
233 234 236 238 238 240 240 243 242 240 240 237 236 237 237 237 237 238 238 238 238 239 240 242 243 243 244 245 247 248 249 250 252 255 257 259 261 263 265 268 271 274 276 279 282 283 285 286 288
233 235 238 240 241 241 240 241 241 241 241 239 237 237 237 237 237 238 238 238 239 239 240 241 242 243 244 245 247 248 249 250 252 254 257 258 261 263 265 268 271 274 277 279 281 283 285 286 288
234 234 236 241 244 244 241 241 243 242 242 241 240 238 238 238 238 238 238 238 238 239 239 240 241 242 243 245 247 248 249 250 252 254 256 258 260 262 265 268 271 274 277 279 281 283 285 287 288
234 233 234 237 242 243 242 242 244 244 244 244 243 240 239 239 239 239 238 238 238 238 239 239 240 241 243 245 246 248 249 251 253 254 256 259 261 263 265 268 270 273 276 279 281 283 284 287 289
233 233 235 237 239 242 243 243 244 245 245 245 244 242 240 239 239 238 237 237 238 238 238 239 239 240 242 244 245 246 248 250 252 254 256 258 260 262 265 268 270 273 276 279 281 282 284 286 288
235 236 236 239 239 239 242 243 245 247 246 245 243 241 240 239 238 238 236 236 237 238 238 239 239 241 242 243 244 246 248 250 251 253 255 257 259 262 265 268 271 273 276 279 280 282 284 286 288